Regional Weather Roundup
Issued by NWS

Current Version | Previous Version | Text Only | Print | Product List | Glossary On
Versions: 1 2 3 4 5 6 7 8 9 10 11 12 13 14 15 16 17 18 19 20 21 22 23 24 25 26 27
000
ASUS45 KBOU 171510
RWRCO

WEATHER ROUNDUP FOR COLORADO
NATIONAL WEATHER SERVICE DENVER/BOULDER CO
800 AM MST WED JAN 17 2018

NOTE: "FAIR" INDICATES FEW OR NO CLOUDS BELOW 12000 FEET WITH NO
SIGNIFICANT WEATHER AND/OR OBSTRUCTIONS TO VISIBILITY.

COZ001>005-013-030-031-171600-
...NORTHWEST COLORADO...

CITY           SKY/WX    TMP DP  RH WIND       PRES   REMARKS
CRAIG          FAIR       4  -2  76 CALM      30.42
HAYDEN         NOT AVBL
MEEKER         FAIR      13   7  77 CALM      30.40
RABBIT EARS PA FAIR      14   5  67 W8        30.33S WCI   3
STEAMBOAT SPGS FAIR       0  -3  87 CALM      30.41R
WALDEN         FAIR       0  -8  71 CALM      30.38R
$$

COZ006>008-011-171600-
...WEST CENTRAL VALLEYS...

CITY           SKY/WX    TMP DP  RH WIND       PRES   REMARKS
GRAND JUNCTION FAIR      19  12  74 SE12      30.42  WCI   7
MONTROSE       FAIR      16   8  71 S6        30.45  WCI   7
EAGLE          FAIR       2  -2  83 CALM      30.51
RIFLE          FAIR      16   9  74 CALM      30.45
DELTA          FAIR      15  10  81 CALM      30.45R
NUCLA          FAIR      19  10  68 E7        30.43S WCI  10
$$

COZ017>023-064>068-171600-
...SOUTHWEST COLORADO...

CITY           SKY/WX    TMP DP  RH WIND       PRES   REMARKS
DURANGO        FAIR      13  12  96 CALM      30.35
CORTEZ         FAIR      18  15  88 E6        30.37  WCI  10
PAGOSA SPRINGS FAIR      14  13  94 CALM      30.33S
TELLURIDE      FAIR      18  -7  33 SE7       30.35S WCI   9
WOLF CREEK PAS FAIR      21 -27  10 NW9G17    30.37R WCI  11
$$

COZ009-010-012-014-032>034-037-058>063-171600-
...CENTRAL COLORADO...

CITY           SKY/WX    TMP DP  RH WIND       PRES   REMARKS
ASPEN          FAIR       6  -4  63 S3        30.36
BUENA VISTA    FAIR       7  -4  59 SW3       30.33S
COPPER MTN     NOT AVBL
BERTHOUD PASS  FAIR      10   0  61 NW12G25   30.32R WCI  -4
COTTONWOOD PAS   N/A     32 -45   2 W3        30.31R
GUNNISON       FAIR      -3  -8  79 N3        30.46
KREMMLING      FAIR       0  -8  71 CALM      30.50R
LEADVILLE      FAIR      10 -13  34 NE8       30.32  WCI  -2
MONARCH PASS   FAIR      23 -31   8 NW6       30.43R WCI  16
SALIDA         FAIR      15  -1  48 W3        30.42R
SUNLIGHT       FAIR      21  -8  27 NW5       30.40R WCI  15
WILKERSON PASS FAIR      28 -27   8 NE3       30.33S
$$

COZ069>075-171600-
...SAN LUIS VALLEY/SANGRE DE CRISTO MOUNTAINS...

CITY           SKY/WX    TMP DP  RH WIND       PRES   REMARKS
ALAMOSA        FAIR      -1  -6  79 CALM      30.36
DEL NORTE      FAIR       9   0  65 W7        30.35R WCI  -2
LA VETA PASS   FAIR      18   9  68 SW10        N/A  WCI   6
SAGUACHE       FAIR      10   3  72 NW8       30.35S WCI  -1
$$

COZ035-036-038>040-171600-
...NORTHERN COLORADO FRONT RANGE...

CITY           SKY/WX    TMP DP  RH WIND       PRES   REMARKS
DENVER INTL AP FAIR      18   8  65 SW6       30.25  WCI  10
DMNS CITY PARK NOT AVBL
AURORA         CLEAR     18   5  57 CALM      30.26
FRONT RANGE AP CLEAR     19  10  68 SW6       30.25R WCI  11
ERIE MUNI ARPT FAIR      10   6  87 S5        30.33R WCI   1
BOULDER MUN AP FAIR      19  12  73 S3        30.26R
CENTENNIAL     FAIR      17   4  56 CALM      30.24
BROOMFIELD     CLEAR     27   9  46 NW5       30.25R WCI  21
FORT COLLINS   FAIR      11   8  88 W3        30.27
LONGMONT       FAIR      11   6  78 CALM      30.29R
$$

COZ041-046-047-076>085-087-088-171600-
...PIKES PEAK/PALMER DIVIDE AND SOUTHERN FOOTHILLS...

CITY           SKY/WX    TMP DP  RH WIND       PRES   REMARKS
COLO. SPRINGS  FAIR      28  -1  28 N9        30.23  WCI  19
A. F. ACADEMY  FAIR      19  -2  38 N14       30.23  WCI   6
SCHRIEVER AFB  FAIR      33  -2  22 N6        30.23  WCI  28
CHEYENNE MTN   FAIR      40  -7  13 NW6       30.18
ELLICOTT         N/A    N/A N/A N/A NE3       30.21
FALCON         FAIR      31 -10  17 N6        30.24R WCI  25
FORT CARSON    FAIR      28   4  36 NW6       30.22  WCI  21
LIMON          FAIR       9   4  80 NW6       30.24  WCI  -1
MONUMENT HILL  FAIR      19   1  45 SW5       30.25R WCI  13
CANON CITY     FAIR      36   5  27 W17G25    30.23S
WALSENBURG     FAIR      37   7  28 W16G22    30.23R
TRINIDAD       FAIR      22  10  60 W9        30.24  WCI  12
$$

COZ042>045-048>051-090-091-171600-
...NORTHEAST COLORADO...

CITY           SKY/WX    TMP DP  RH WIND       PRES   REMARKS
GREELEY ARPT   FAIR       8   5  87 CALM      30.29
AKRON          FAIR      14   7  73 W15       30.25  WCI  -1
BURLINGTON     FAIR      14   7  73 SW8       30.25  WCI   3
WRAY           FAIR      10   5  79 W6        30.27S WCI   1
YUMA           FAIR      12   5  73 W12       30.25R WCI  -2
STERLING       FAIR       9   3  78 SW8       30.27R WCI  -4
HOLYOKE        FAIR      12   5  73 W5        30.27R WCI   4
FORT MORGAN    FAIR       7   1  78 W12       30.27R WCI  -9
$$

COZ086-089-092>099-171600-
...SOUTHEAST COLORADO...

CITY           SKY/WX    TMP DP  RH WIND       PRES   REMARKS
PUEBLO         FAIR      11   4  73 SW3       30.26
LA JUNTA       FAIR      12   6  77 W8        30.30  WCI   0
LAMAR          FAIR       3  -5  69 CALM      30.32
SPRINGFIELD      N/A     18  12  77 NW6       30.26  WCI  10
$$




USA.gov is the U.S. government's official web portal to all federal, state and local government web resources and services.